Location: Bremen
(53.0793°N, 8.8017°E)
Time: 09:37:44
(UTC+01:00)

Transit 2A - Pass Details

Date: 05 December 2021
Orbit: 591 x 966 km, 66.7° (Epoch: 26 January)

Event Time Altitude Azimuth Distance (km) Brightness Sun altitude
Exits shadow 02:44:13 12° 35° (NE) 2,561 9.1 -48.3°
Drops below altitude 10° 02:44:39 10° 37° (NE) 2,704 9.3 -48.2°
Sets 02:47:30 0° 46° (NE) 3,664 10.2 -47.9°
